Notices

What's New in latest Release from April 7th, 2021:

- Updated Glossary, including Speed of Maximum Gust, and Total Hourly Precipitation

- Updated national and regional climate services offices contacts and prices information

- Addition of station inventory lists for 1981-2010, 1971-2000, and 1961-1990 Normals.

If you haven't already, please take our survey and provide feedback about our website: https://eccc.sondage-survey.ca/f/LanguageSelection.aspx?s=442ca660-fcf1-47c0-95a9-59707d6fd709

Hourly Data Report for January 01, 2020

EUREKA CLIMATE
NUNAVUT
Current Station Operator: ECCC - MSC

79°59'21.000" N
85°56'02.000" W
10.00 m
2401199
71613
NEK

Download Data

Hourly Data (January 2020)
Hourly Data Report for January 1, 2020
TIME
LST
Temp Definition
°C
Dew Point Definition
°C
Rel Hum Definition
%
Precip. Amount Definition
mm

Wind Dir Definition
10's deg

Wind Spd Definition
km/h
Visibility Definition
km
Stn Press Definition
kPa
Hmdx Definition


Wind Chill Definition


Weather Definition


00:00 -44.1 -48.6 61 0.0 7 3   100.95   -49 LegendNANA
01:00 -43.8 -48.2 62 0.0 6 4   100.97   -50 LegendNANA
02:00 -45.1 -49.7 60 0.0 4 3   101.00   -50 LegendNANA
03:00 -43.2 -47.5 63 0.0 5 6   101.04   -52 LegendNANA
04:00 -45.1 -49.7 60 0.0 2 5   101.06   -53 LegendNANA
05:00 -45.3 -49.9 60 0.0 4 3   101.05   -50 LegendNANA
06:00 -45.1 -49.7 60 0.0 4 5   101.04   -53 LegendNANA
07:00 -44.9 -49.6 60 0.0 6 5   101.06   -53 LegendNANA
08:00 -45.7 -50.3 60 0.0 4 5   101.07   -53 LegendNANA
09:00 -45.9 -50.6 59 0.0 0 1   101.09   -47 LegendNANA
10:00 -45.4 -50.0 60 0.0 7 4   101.10   -52 LegendNANA
11:00 -45.6 -50.2 60 0.0 8 7   101.11   -55 LegendNANA
12:00 -45.3 -50.0 60 0.0 9 4   101.14   -51 LegendNANA
13:00 -46.5 -51.3 58 0.0 9 3   101.18   -51 LegendNANA
14:00 -46.7 -51.5 58 0.0 4 6   101.22   -56 LegendNANA
15:00 -46.4 -51.2 58 0.2 4 6   101.24   -55 LegendNANA
16:00 -45.2 -49.9 60 0.0 9 1   101.27   -47 LegendNANA
17:00 -45.9 -50.6 59 0.0 8 8   101.28   -57 LegendNANA
18:00 -45.7 -50.4 59 0.0 10 4   101.29   -52 LegendNANA
19:00 -47.0 -51.9 57 0.0 6 5   101.34   -55 LegendNANA
20:00 -47.2 -52.1 57 0.0 3 6   101.33   -56 LegendNANA
21:00 -46.0 -50.7 59 0.0 9 3   101.35   -51 LegendNANA
22:00 -46.7 -51.5 58 0.0 9 6   101.39   -56 LegendNANA
23:00 -46.2 -50.9 59 0.0 5 6   101.43   -55 LegendNANA

Notes on Data Quality.

Legend

  • E = Estimated
  • M = Missing
  • NA = Not Available*
  • [empty] = Indicates an unobserved value
Date modified: